Weather History for Mosby, MO

Change the Weather History Date:

Thursday, January 31, 2013

  Actual Average (KMKC) Record (KMKC)
Temperature  
Mean Temperature 16 °F -  
Max Temperature 24 °F 38 °F 72 °F (2009)
Min Temperature 8 °F 23 °F 9 °F (2004)
Degree Days  
Heating Degree Days 49    
Moisture  
Dew Point 9 °F    
Average Humidity 70    
Maximum Humidity 93    
Minimum Humidity 57    
Precipitation  
Precipitation 0.00 in - - ()
Sea Level Pressure  
Sea Level Pressure 30.19 in    
Wind  
Wind Speed 7 mph (WNW)    
Max Wind Speed 21 mph    
Max Gust Speed 32 mph    
Visibility 10 miles    
Events      
Averages and records for this station are not official NWS values.
T = Trace of Precipitation, MM = Missing Value Source: NWS Daily Summary

Daily Weather History Graph

Daily Weather History Graph

Search for Another Location

Airport:

Trip Planner

Search our weather history database for the weather conditions in past years. The results will help you decide how hot, cold, wet, or windy it might be!

Date:

Astronomy

Jan. 31, 2013 Rise Set
Actual Time 7:24 AM CST 5:36 PM CST
Civil Twilight 6:56 AM CST 6:05 PM CST
Nautical Twilight 6:24 AM CST 6:37 PM CST
Astronomical Twilight 5:53 AM CST 7:09 PM CST
Moon 10:37 PM CST (1/31) 9:26 AM CST (1/31)
Length of Visible Light 11h 08m
Length of Day
10h 11m
Waning Gibbous, 79% of the Moon is Illuminated
Jan 31
Waning Gibbous
Feb 3
Last Quarter
Feb 10
New
Feb 17
First Quarter
Feb 25
Full

Hourly Weather History & Observations

Time (CST) Temp. Windchill Dew Point Humidity Pressure Visibility Wind Dir Wind Speed Gust Speed Precip Events Conditions
12:15 AM 23.0 °F - 17.6 °F 80% 29.96 in 10.0 mi Calm Calm - N/A   Clear
12:35 AM 21.2 °F - 17.6 °F 86% 29.97 in 10.0 mi Calm Calm - N/A   Clear
12:55 AM 21.2 °F - 17.6 °F 86% 29.97 in 10.0 mi Calm Calm - N/A   Scattered Clouds
1:15 AM 21.2 °F - 19.4 °F 93% 29.97 in 10.0 mi Calm Calm - N/A   Mostly Cloudy
1:35 AM 21.2 °F - 17.6 °F 86% 29.97 in 10.0 mi Calm Calm - N/A   Mostly Cloudy
1:55 AM 21.2 °F - 17.6 °F 86% 29.96 in 10.0 mi Calm Calm - N/A   Overcast
2:15 AM 23.0 °F - 19.4 °F 86% 29.96 in 10.0 mi Calm Calm - N/A   Overcast
2:35 AM 24.8 °F 19.1 °F 19.4 °F 80% 29.97 in 10.0 mi WSW 4.6 mph - N/A   Unknown
2:55 AM 24.8 °F 17.9 °F 19.4 °F 80% 29.96 in 10.0 mi SW 5.8 mph - N/A   Overcast
3:15 AM 24.8 °F 17.9 °F 19.4 °F 80% 29.96 in 10.0 mi SW 5.8 mph - N/A   Overcast
3:35 AM 24.8 °F 17.9 °F 19.4 °F 80% 29.96 in 10.0 mi WSW 5.8 mph - N/A   Overcast
3:55 AM 24.8 °F 17.9 °F 19.4 °F 80% 29.96 in 10.0 mi WSW 5.8 mph - N/A   Overcast
4:15 AM 24.8 °F 19.1 °F 19.4 °F 80% 29.96 in 10.0 mi WNW 4.6 mph - N/A   Overcast
4:35 AM 24.8 °F - 19.4 °F 80% 29.96 in 10.0 mi Calm Calm - N/A   Mostly Cloudy
4:55 AM 23.0 °F 17.0 °F 19.4 °F 86% 29.97 in 10.0 mi NW 4.6 mph - N/A   Scattered Clouds
5:15 AM 23.0 °F 14.7 °F 19.4 °F 86% 29.97 in 10.0 mi NW 6.9 mph - N/A   Scattered Clouds
5:35 AM 23.0 °F 15.8 °F 19.4 °F 86% 29.97 in 10.0 mi West 5.8 mph - N/A   Overcast
5:55 AM 23.0 °F 14.7 °F 19.4 °F 86% 29.98 in 10.0 mi WNW 6.9 mph - N/A   Overcast
6:15 AM 23.0 °F 13.1 °F 19.4 °F 86% 29.99 in 10.0 mi NW 9.2 mph - N/A   Overcast
6:55 AM 23.0 °F 11.7 °F 17.6 °F 80% 30.01 in 10.0 mi NW 11.5 mph - N/A   Overcast
7:15 AM 23.0 °F 11.7 °F 15.8 °F 74% 30.02 in 10.0 mi NW 11.5 mph - N/A   Mostly Cloudy
7:35 AM 23.0 °F 13.1 °F 14.0 °F 68% 30.04 in 10.0 mi NW 9.2 mph 17.3 mph N/A   Mostly Cloudy
8:15 AM 21.2 °F 10.9 °F 14.0 °F 74% 30.06 in 10.0 mi NW 9.2 mph 16.1 mph N/A   Scattered Clouds
8:35 AM 21.2 °F 12.6 °F 14.0 °F 74% 30.07 in 10.0 mi NW 6.9 mph - N/A   Clear
8:55 AM 21.2 °F 8.3 °F 12.2 °F 68% 30.09 in 10.0 mi NW 13.8 mph - N/A   Scattered Clouds
9:15 AM 21.2 °F 8.3 °F 12.2 °F 68% 30.10 in 10.0 mi NW 13.8 mph 19.6 mph N/A   Overcast
9:35 AM 21.2 °F 8.3 °F 10.4 °F 63% 30.11 in 10.0 mi NW 13.8 mph - N/A   Mostly Cloudy
9:55 AM 21.2 °F 7.8 °F 10.4 °F 63% 30.12 in 10.0 mi NNW 15.0 mph - N/A   Mostly Cloudy
10:15 AM 19.4 °F 7.2 °F 8.6 °F 63% 30.14 in 10.0 mi NNW 11.5 mph - N/A   Scattered Clouds
10:35 AM 19.4 °F 7.9 °F 8.6 °F 63% 30.14 in 10.0 mi NW 10.4 mph - N/A   Scattered Clouds
10:55 AM 19.4 °F 6.6 °F 8.6 °F 63% 30.16 in 10.0 mi WNW 12.7 mph 19.6 mph N/A   Mostly Cloudy
11:15 AM 19.4 °F 5.5 °F 10.4 °F 68% 30.17 in 10.0 mi WNW 15.0 mph 19.6 mph N/A   Scattered Clouds
11:35 AM 19.4 °F 4.5 °F 6.8 °F 58% 30.18 in 10.0 mi NW 17.3 mph 28.8 mph N/A   Mostly Cloudy
11:55 AM 19.4 °F 5.5 °F 6.8 °F 58% 30.19 in 10.0 mi NW 15.0 mph 23.0 mph N/A   Overcast
12:15 PM 19.4 °F 4.5 °F 8.6 °F 63% 30.19 in 10.0 mi West 17.3 mph 23.0 mph N/A   Overcast
12:35 PM 19.4 °F 4.5 °F 8.6 °F 63% 30.20 in 10.0 mi WNW 17.3 mph 24.2 mph N/A   Overcast
12:55 PM 19.4 °F 4.5 °F 6.8 °F 58% 30.21 in 10.0 mi NW 17.3 mph 31.1 mph N/A   Overcast
1:15 PM 19.4 °F 3.2 °F 6.8 °F 58% 30.22 in 10.0 mi NW 20.7 mph 32.2 mph N/A   Overcast
1:35 PM 19.4 °F 3.2 °F 8.6 °F 63% 30.22 in 10.0 mi NW 20.7 mph 26.5 mph N/A   Mostly Cloudy
1:55 PM 19.4 °F 4.5 °F 6.8 °F 58% 30.23 in 10.0 mi NW 17.3 mph 28.8 mph N/A   Overcast
2:15 PM 17.6 °F 1.3 °F 5.0 °F 58% 30.24 in 10.0 mi NW 19.6 mph 32.2 mph N/A   Mostly Cloudy
2:35 PM 17.6 °F 0.9 °F 5.0 °F 58% 30.25 in 10.0 mi NW 20.7 mph 26.5 mph N/A   Scattered Clouds
2:55 PM 15.8 °F -1.1 °F 3.2 °F 58% 30.27 in 10.0 mi NW 19.6 mph 24.2 mph N/A   Scattered Clouds
3:15 PM 14.0 °F -0.8 °F 3.2 °F 62% 30.27 in 10.0 mi NW 13.8 mph 21.9 mph N/A   Scattered Clouds
3:35 PM 15.8 °F 1.4 °F 3.2 °F 58% 30.28 in 10.0 mi NW 13.8 mph 21.9 mph N/A   Unknown
3:55 PM 15.8 °F -1.1 °F 5.0 °F 62% 30.29 in 10.0 mi NW 19.6 mph 23.0 mph N/A   Unknown
4:15 PM 15.8 °F 0.9 °F 3.2 °F 58% 30.30 in 10.0 mi NW 15.0 mph 21.9 mph N/A   Unknown
4:35 PM 15.8 °F -0.2 °F 3.2 °F 58% 30.31 in 10.0 mi NW 17.3 mph 23.0 mph N/A   Unknown
4:55 PM 14.0 °F -2.5 °F 3.2 °F 62% 30.32 in 10.0 mi NW 17.3 mph 25.3 mph N/A   Clear
5:15 PM 14.0 °F -1.4 °F 3.2 °F 62% 30.32 in 10.0 mi NW 15.0 mph 23.0 mph N/A   Clear
5:35 PM 14.0 °F -0.8 °F 3.2 °F 62% 30.33 in 10.0 mi NW 13.8 mph - N/A   Clear
5:55 PM 14.0 °F 0.5 °F 3.2 °F 62% 30.34 in 10.0 mi NW 11.5 mph - N/A   Clear
6:15 PM 12.2 °F -1.8 °F 3.2 °F 67% 30.36 in 10.0 mi NW 11.5 mph - N/A   Clear
6:35 PM 12.2 °F -2.5 °F 3.2 °F 67% 30.37 in 10.0 mi NW 12.7 mph - N/A   Clear
6:55 PM 12.2 °F -0.2 °F 3.2 °F 67% 30.38 in 10.0 mi NW 9.2 mph - N/A   Clear
7:15 PM 12.2 °F -3.1 °F 1.4 °F 62% 30.39 in 10.0 mi NW 13.8 mph - N/A   Clear
7:35 PM 12.2 °F -0.2 °F -0.4 °F 57% 30.40 in 10.0 mi NW 9.2 mph - N/A   Clear
7:55 PM 12.2 °F 0.7 °F -0.4 °F 57% 30.40 in 10.0 mi NW 8.1 mph - N/A   Unknown
8:15 PM 10.4 °F 2.2 °F 1.4 °F 67% 30.40 in 10.0 mi NW 4.6 mph - N/A   Unknown
8:35 PM 10.4 °F 0.8 °F 1.4 °F 67% 30.41 in 10.0 mi NW 5.8 mph - N/A   Clear
8:55 PM 10.4 °F 4.0 °F 1.4 °F 67% 30.42 in 10.0 mi West 3.5 mph - N/A   Clear
9:15 PM 10.4 °F 0.8 °F 1.4 °F 67% 30.43 in 10.0 mi West 5.8 mph - N/A   Unknown
9:35 PM 10.4 °F - 1.4 °F 67% 30.44 in 10.0 mi Calm Calm - N/A   Clear
9:55 PM 10.4 °F 0.8 °F 1.4 °F 67% 30.46 in 10.0 mi WSW 5.8 mph - N/A   Clear
10:15 PM 10.4 °F 2.2 °F 1.4 °F 67% 30.47 in 10.0 mi WSW 4.6 mph - N/A   Unknown
10:35 PM 10.4 °F 4.0 °F 1.4 °F 67% 30.47 in 10.0 mi WSW 3.5 mph - N/A   Unknown
10:55 PM 8.6 °F -1.3 °F 1.4 °F 73% 30.48 in 10.0 mi West 5.8 mph - N/A   Clear
11:35 PM 10.4 °F 4.0 °F 1.4 °F 67% 30.48 in 10.0 mi West 3.5 mph - N/A   Clear
11:55 PM 10.4 °F 4.0 °F 1.4 °F 67% 30.48 in 10.0 mi West 3.5 mph - N/A   Clear